Location: Asheville, NC
(35.6000°N, 82.5500°W)
Time: 03:51:53
(UTC-04:00)

Tiangong 2 - Pass Details

Date: 13 October 2017
Orbit: 388 x 391 km, 42.8° (Epoch: 23 October)

Event Time Altitude Azimuth Distance (km) Brightness Sun altitude
Exits shadow 05:53:29 24° 11° (N) 865 3.0 -21.4°
Drops below altitude 10° 05:55:34 10° 48° (NE) 1,418 4.7 -21.0°
Sets 05:57:52 0° 62° (ENE) 2,275 6.2 -20.5°
